Find Starlink 37268

NORAD ID: 68747 Int'l Des: 2026-082 Owner: SPXS Country: US Constellation: starlink operational
LEOCIRCULARRETROGRADE

現在のビュー

3D地球を読み込み中...

Starlink 37268について

説明を読み込み中...

次回通過

Passes for default location (London). Set your location on the main map for personalized predictions.

高度履歴

Loading altitude history...

軌道要素

1 68747U 26082V 26150.55006449 .00048127 00000-0 88002-3 0 9990
2 68747 97.2854 14.2739 0002511 105.1252 255.0277 15.49224425 6990
Epoch: May 30, 2026 • Age: 17 hours

現在のステータス

高度 430.3 km
速度 7.66 km/s
衛星直下点 77.42°N, 7.44°W
打ち上げ日 Apr 15, 2026
運用期間 0.1 years
タイプ internet

技術仕様

分類 Payload
質量 575.00 kg
乾燥質量 530.00 kg
総質量 575.00 kg
長さ 0.30 m
直径 4.10 m
スパン 29.00 m
形状 Box + pan
製造者 SPXS
バスタイプ Starlink V2MO
フェーズステータス In Orbit
所有者/国 SPXS/US

Most Searched